Regional Weather Roundup
Issued by NWS Cleveland, OH

Home | Current Version | Previous Version | Graphics & Text | Print | Product List | Glossary On
Versions: 1 2 3 4 5 6 7 8 9 10 11 12 13 14 15 16 17 18 19 20 21 22 23 24 25 26 27 28 29 30 31 32 33 34 35 36 37 38 39 40 41 42 43 44 45 46 47 48 49 50
000
ASUS41 KCLE 210410
RWRCLE
OHIO REGIONAL WEATHER ROUNDUP
NATIONAL WEATHER SERVICE WILMINGTON, OH
1200 AM EDT MON APR 21 2014

NOTE: "FAIR" INDICATES FEW OR NO CLOUDS BELOW 12,000 FEET WITH NO
SIGNIFICANT WEATHER AND/OR OBSTRUCTIONS TO VISIBILITY.

OHZ001>008-015>018-024>027-034-035-043-044-210500-
   NORTHWEST OHIO

CITY           SKY/WX    TMP DP  RH WIND       PRES   REMARKS
DEFIANCE       PTCLDY    53  35  50 CALM      30.10F
FINDLAY        PTCLDY    52  40  63 SE5       30.10F
TOLEDO EXPRESS PTCLDY    49  39  68 CALM      30.10F
TOLEDO METCALF PTCLDY    50  37  61 E6        30.11F
LIMA           CLEAR     53  36  52 S6        30.11F
$$

OHZ009>014-019>023-028>033-038-089-210500-
   NORTHEAST OHIO

CITY           SKY/WX    TMP DP  RH WIND       PRES   REMARKS
CLE-HOPKINS    MOCLDY    53  35  50 W5        30.15F
CLE-LAKEFRONT  MOCLDY    49  44  83 SW6       30.10F
CUY CO. ARPT   NOT AVBL
LORAIN-ELYRIA  PTCLDY    53  39  59 S3        30.12F
ASHTABULA      PTCLDY    49  32  52 S5        30.14F
AKRON-CANTON   PTCLDY    59  23  24 CALM      30.14F
WOOSTER        PTCLDY    47  39  74 CALM      30.13F
MANSFIELD      PTCLDY    56  40  55 CALM      30.13F
YOUNGSTOWN     PTCLDY    57  21  24 SE7       30.14F
$$

OHZ042-051>053-060>062-070>072-077>081-210500-
  SOUTHWEST OHIO

CITY           SKY/WX    TMP DP  RH WIND       PRES   REMARKS
CINC-COVINGTON CLEAR     57  40  52 CALM      30.11F
CINC-LUNKEN    CLEAR     51  46  83 CALM      30.12F
HAMILTON       CLEAR     51  43  74 CALM      30.12F
DAYTON         PTCLDY    59  37  44 CALM      30.12F
WRIGHT-PAT AFB CLEAR     53  44  71 CALM      30.11F
DAYTON GENERAL CLEAR     58  38  47 CALM      30.11F
WILMINGTON     PTCLDY    55  43  63 CALM      30.12F
$$

OHZ036-037-039>041-045>050-054>059-063>069-073>076-082>088-210500-
  CENTRAL AND SOUTHEAST OHIO

CITY           SKY/WX    TMP DP  RH WIND       PRES   REMARKS
COLUMBUS       PTCLDY    60  41  49 CALM      30.11F
OSU AIRPORT    MOCLDY    57  39  51 CALM      30.11F
BOLTON FIELD   MOCLDY    53  42  66 CALM      30.12F
RICKENBACK AFB MOCLDY    58  41  53 W3        30.11S
NEWARK         CLEAR     49  41  74 CALM      30.12F
MARION         PTCLDY    52  41  66 CALM      30.12F
LANCASTER      PTCLDY    47  40  76 CALM      30.12F
ZANESVILLE     PTCLDY    53  31  42 CALM      30.12F
NEW PHILLY     PTCLDY    48  34  58 CALM      30.14F
$$



USA.gov is the U.S. government's official web portal to all federal, state and local government web resources and services.